Weather History for Telluride, CO

Change the Weather History Date:

Friday, June 21, 2013

  Actual Average Record
Temperature  
Mean Temperature 62 °F -  
Max Temperature 73 °F 68 °F 80 °F (2005)
Min Temperature 50 °F 43 °F 37 °F (2011)
Degree Days  
Heating Degree Days 4    
Growing Degree Days 12 (Base 50)    
Moisture  
Dew Point 16 °F    
Average Humidity 17    
Maximum Humidity 30    
Minimum Humidity 10    
Precipitation  
Precipitation 0.00 in - - ()
Sea Level Pressure  
Sea Level Pressure 30.25 in    
Wind  
Wind Speed 6 mph (SSE)    
Max Wind Speed 17 mph    
Max Gust Speed 28 mph    
Visibility 10 miles    
Events      
Averages and records for this station are not official NWS values.
T = Trace of Precipitation, MM = Missing Value Source: NWS Daily Summary

Daily Weather History Graph

Daily Weather History Graph

Search for Another Location

Airport:

Trip Planner

Search our weather history database for the weather conditions in past years. The results will help you decide how hot, cold, wet, or windy it might be!

Date:

Astronomy

Jun. 21, 2013 Rise Set
Actual Time 5:49 AM MDT 8:37 PM MDT
Civil Twilight 5:18 AM MDT 9:09 PM MDT
Nautical Twilight 4:38 AM MDT 9:48 PM MDT
Astronomical Twilight 3:53 AM MDT 10:33 PM MDT
Moon 6:52 PM MDT (6/21) 4:06 AM MDT (6/21)
Length of Visible Light 15h 50m
Length of Day
14h 48m
Waxing Gibbous, 95% of the Moon is Illuminated
Jun 21
Waxing Gibbous
Jun 23
Full
Jun 29
Last Quarter
Jul 8
New
Jul 15
First Quarter

Hourly Weather History & Observations

Time (MDT) Temp. Dew Point Humidity Pressure Visibility Wind Dir Wind Speed Gust Speed Precip Events Conditions
12:15 AM 57.2 °F 14.0 °F 18% 30.24 in 10.0 mi East 4.6 mph - N/A   Clear
12:35 AM 55.4 °F 14.0 °F 20% 30.24 in 10.0 mi SE 8.1 mph - N/A   Clear
12:55 AM 53.6 °F 14.0 °F 21% 30.24 in 10.0 mi Calm Calm - N/A   Clear
1:15 AM 55.4 °F 14.0 °F 20% 30.24 in 10.0 mi East 4.6 mph - N/A   Clear
1:35 AM 53.6 °F 14.0 °F 21% 30.24 in 10.0 mi SE 6.9 mph - N/A   Clear
1:55 AM 53.6 °F 14.0 °F 21% 30.25 in 10.0 mi Calm Calm - N/A   Clear
2:15 AM 53.6 °F 14.0 °F 21% 30.25 in 10.0 mi East 3.5 mph - N/A   Clear
2:35 AM 53.6 °F 14.0 °F 21% 30.25 in 10.0 mi Calm Calm - N/A   Clear
2:55 AM 53.6 °F 14.0 °F 21% 30.25 in 10.0 mi Calm Calm - N/A   Clear
3:15 AM 53.6 °F 14.0 °F 21% 30.25 in 10.0 mi Calm Calm - N/A   Clear
3:35 AM 53.6 °F 14.0 °F 21% 30.25 in 10.0 mi Calm Calm - N/A   Clear
3:55 AM 51.8 °F 14.0 °F 22% 30.26 in 10.0 mi Calm Calm - N/A   Clear
4:15 AM 51.8 °F 15.8 °F 24% 30.26 in 10.0 mi South 3.5 mph - N/A   Clear
4:35 AM 51.8 °F 15.8 °F 24% 30.26 in 10.0 mi East 4.6 mph - N/A   Clear
4:55 AM 51.8 °F 15.8 °F 24% 30.27 in 10.0 mi Calm Calm - N/A   Clear
5:15 AM 51.8 °F 17.6 °F 26% 30.27 in 10.0 mi Calm Calm - N/A   Clear
5:35 AM 51.8 °F 17.6 °F 26% 30.28 in 10.0 mi ESE 5.8 mph - N/A   Clear
5:55 AM 51.8 °F 17.6 °F 26% 30.28 in 10.0 mi ESE 4.6 mph - N/A   Clear
6:15 AM 51.8 °F 19.4 °F 28% 30.28 in 10.0 mi SSE 3.5 mph - N/A   Clear
6:35 AM 51.8 °F 19.4 °F 28% 30.29 in 10.0 mi ESE 4.6 mph - N/A   Clear
6:55 AM 50.0 °F 19.4 °F 30% 30.29 in 10.0 mi Calm Calm - N/A   Clear
7:15 AM 51.8 °F 21.2 °F 30% 30.30 in 10.0 mi ESE 3.5 mph - N/A   Clear
7:35 AM 53.6 °F 21.2 °F 28% 30.30 in 10.0 mi Calm Calm - N/A   Clear
7:55 AM 55.4 °F 21.2 °F 26% 30.29 in 10.0 mi East 4.6 mph - N/A   Clear
8:15 AM 59.0 °F 23.0 °F 25% 30.28 in 10.0 mi Calm Calm - N/A   Clear
8:35 AM 62.6 °F 19.4 °F 19% 30.28 in 10.0 mi ESE 8.1 mph - N/A   Clear
8:55 AM 62.6 °F 15.8 °F 16% 30.28 in 10.0 mi East 10.4 mph - N/A   Clear
9:15 AM 64.4 °F 17.6 °F 16% 30.27 in 10.0 mi ESE 11.5 mph 17.3 mph N/A   Clear
9:35 AM 64.4 °F 15.8 °F 15% 30.27 in 10.0 mi East 10.4 mph 20.7 mph N/A   Clear
9:55 AM 66.2 °F 15.8 °F 14% 30.28 in 10.0 mi South 5.8 mph - N/A   Clear
10:15 AM 68.0 °F 17.6 °F 15% 30.27 in 10.0 mi ESE 13.8 mph 23.0 mph N/A   Clear
10:35 AM 68.0 °F 15.8 °F 13% 30.27 in 10.0 mi SE 10.4 mph 19.6 mph N/A   Clear
10:55 AM 68.0 °F 15.8 °F 13% 30.28 in 10.0 mi SE 5.8 mph 18.4 mph N/A   Clear
11:15 AM 68.0 °F 15.8 °F 13% 30.28 in 10.0 mi ESE 9.2 mph 19.6 mph N/A   Clear
11:35 AM 68.0 °F 15.8 °F 13% 30.27 in 10.0 mi SE 8.1 mph 19.6 mph N/A   Clear
11:55 AM 69.8 °F 15.8 °F 13% 30.26 in 10.0 mi SE 13.8 mph 18.4 mph N/A   Clear
12:15 PM 68.0 °F 12.2 °F 12% 30.26 in 10.0 mi South 15.0 mph 25.3 mph N/A   Clear
12:35 PM 69.8 °F 14.0 °F 12% 30.26 in 10.0 mi SSE 4.6 mph 26.5 mph N/A   Clear
12:55 PM 71.6 °F 15.8 °F 12% 30.25 in 10.0 mi South 17.3 mph 27.6 mph N/A   Clear
1:15 PM 69.8 °F 15.8 °F 13% 30.25 in 10.0 mi SSW 13.8 mph 24.2 mph N/A   Clear
1:35 PM 71.6 °F 15.8 °F 12% 30.25 in 10.0 mi South 10.4 mph 19.6 mph N/A   Clear
1:55 PM 69.8 °F 15.8 °F 13% 30.25 in 10.0 mi SSW 9.2 mph 25.3 mph N/A   Clear
2:15 PM 71.6 °F 15.8 °F 12% 30.24 in 10.0 mi SSW 9.2 mph 21.9 mph N/A   Clear
2:35 PM 71.6 °F 15.8 °F 12% 30.24 in 10.0 mi South 12.7 mph 25.3 mph N/A   Clear
2:55 PM 71.6 °F 17.6 °F 13% 30.24 in 10.0 mi West 5.8 mph 19.6 mph N/A   Clear
3:15 PM 73.4 °F 17.6 °F 12% 30.24 in 10.0 mi SSE 5.8 mph - N/A   Scattered Clouds
3:35 PM 73.4 °F 17.6 °F 12% 30.23 in 10.0 mi SE 10.4 mph - N/A   Scattered Clouds
3:55 PM 73.4 °F 14.0 °F 10% 30.23 in 10.0 mi South 8.1 mph 23.0 mph N/A   Scattered Clouds
4:15 PM 71.6 °F 14.0 °F 11% 30.22 in 10.0 mi SSW 12.7 mph 23.0 mph N/A   Scattered Clouds
4:35 PM 73.4 °F 15.8 °F 11% 30.22 in 10.0 mi South 12.7 mph 20.7 mph N/A   Clear
4:55 PM 71.6 °F 14.0 °F 11% 30.22 in 10.0 mi South 12.7 mph 20.7 mph N/A   Clear
5:15 PM 71.6 °F 14.0 °F 11% 30.22 in 10.0 mi South 13.8 mph 21.9 mph N/A   Clear
5:35 PM 73.4 °F 17.6 °F 12% 30.22 in 10.0 mi SSW 11.5 mph 19.6 mph N/A   Scattered Clouds
5:55 PM 71.6 °F 17.6 °F 13% 30.21 in 10.0 mi WSW 10.4 mph 20.7 mph N/A   Scattered Clouds
6:15 PM 71.6 °F 17.6 °F 13% 30.21 in 10.0 mi SSW 13.8 mph 21.9 mph N/A   Scattered Clouds
6:35 PM 71.6 °F 17.6 °F 13% 30.22 in 10.0 mi SSW 4.6 mph 18.4 mph N/A   Scattered Clouds
6:55 PM 71.6 °F 17.6 °F 13% 30.21 in 10.0 mi South 11.5 mph 19.6 mph N/A   Scattered Clouds
7:15 PM 69.8 °F 15.8 °F 13% 30.22 in 10.0 mi SW 9.2 mph 21.9 mph N/A   Scattered Clouds
7:35 PM 69.8 °F 14.0 °F 12% 30.22 in 10.0 mi SW 10.4 mph 23.0 mph N/A   Clear
7:55 PM 69.8 °F 15.8 °F 13% 30.22 in 10.0 mi SW 15.0 mph 20.7 mph N/A   Clear
8:15 PM 68.0 °F 14.0 °F 12% 30.22 in 10.0 mi South 10.4 mph 19.6 mph N/A   Clear
8:35 PM 68.0 °F 14.0 °F 12% 30.23 in 10.0 mi SSW 11.5 mph - N/A   Clear
8:55 PM 66.2 °F 12.2 °F 12% 30.23 in 10.0 mi WSW 9.2 mph - N/A   Clear
9:15 PM 64.4 °F 12.2 °F 13% 30.23 in 10.0 mi WSW 6.9 mph - N/A   Clear
9:35 PM 62.6 °F 12.2 °F 14% 30.24 in 10.0 mi South 3.5 mph - N/A   Clear
9:55 PM 62.6 °F 14.0 °F 15% 30.25 in 10.0 mi SE 3.5 mph - N/A   Clear
10:15 PM 60.8 °F 14.0 °F 16% 30.26 in 10.0 mi East 4.6 mph - N/A   Clear
10:35 PM 59.0 °F 14.0 °F 17% 30.26 in 10.0 mi Calm Calm - N/A   Clear
10:55 PM 59.0 °F 14.0 °F 17% 30.26 in 10.0 mi Calm Calm - N/A   Clear
11:15 PM 57.2 °F 14.0 °F 18% 30.26 in 10.0 mi Calm Calm - N/A   Clear
11:35 PM 59.0 °F 14.0 °F 17% 30.26 in 10.0 mi ESE 4.6 mph - N/A   Clear
11:55 PM 55.4 °F 15.8 °F 21% 30.26 in 10.0 mi East 3.5 mph - N/A   Clear